Fountain Dale, PA

9:24 PM EDT on May 25, 2018 (GMT -0400)
Fountain Dale

Weather History for KRYT - July, 2013

Change the Weather History Date:

Wednesday, July 24, 2013

  Actual Average (WUND) Record (WUND)
Temperature  
Mean Temperature 74 °F -  
Max Temperature 84 °F - - (-1)
Min Temperature 66 °F - - (-1)
Cooling Degree Days 9    
Growing Degree Days 24 (Base 50)    
Moisture  
Dew Point 59 °F    
Average Humidity 57    
Maximum Humidity 73    
Minimum Humidity 38    
Precipitation  
Precipitation 0.00 in - - ()
Sea Level Pressure  
Sea Level Pressure 29.78 in    
Wind  
Wind Speed 2 mph (North)    
Max Wind Speed 10 mph    
Max Gust Speed -    
Visibility 10 miles    
Events      
Averages and records for this station are not official NWS values.
T = Trace of Precipitation, MM = Missing Value Source: NWS Daily Summary

Daily Weather History Graph

Daily Weather History Graph

Search for Another Location

Airport or City:

Astronomy

Jul. 24, 2013 Rise Set
Actual Time 6:01 AM EDT 8:30 PM EDT
Civil Twilight 5:30 AM EDT 9:00 PM EDT
Nautical Twilight 4:52 AM EDT 9:39 PM EDT
Astronomical Twilight 4:09 AM EDT 10:21 PM EDT
Moon 9:35 PM EDT (7/24) 8:18 AM EDT (7/24)
Length of Visible Light 15h 30m
Length of Day
14h 28m
Waning Gibbous, 95% of the Moon is Illuminated
Jul 24
Waning Gibbous
Jul 29
Last Quarter
Aug 6
New
Aug 14
First Quarter
Aug 20
Full

Hourly Weather History & Observations

Time (EDT) Temp. Heat Index Dew Point Humidity Pressure Visibility Wind Dir Wind Speed Gust Speed Precip Events Conditions
12:53 AM 79.0 °F - 64.9 °F 62% 29.68 in 10.0 mi Calm Calm - N/A   Clear
1:53 AM 75.9 °F - 64.9 °F 69% 29.67 in 10.0 mi Calm Calm - N/A   Clear
2:53 AM 77.0 °F - 62.1 °F 60% 29.68 in 10.0 mi Variable 4.6 mph - N/A   Clear
3:53 AM 73.9 °F - 61.0 °F 64% 29.68 in 10.0 mi Calm Calm - N/A   Scattered Clouds
4:53 AM 73.0 °F - 60.1 °F 64% 29.67 in 10.0 mi Calm Calm - N/A   Clear
5:53 AM 70.0 °F - 61.0 °F 73% 29.68 in 10.0 mi Calm Calm - N/A   Clear
6:53 AM 73.0 °F - 61.0 °F 66% 29.71 in 10.0 mi Calm Calm - N/A   Clear
7:53 AM 73.9 °F - 62.1 °F 66% 29.73 in 10.0 mi Calm Calm - N/A   Mostly Cloudy
8:53 AM 75.0 °F - 63.0 °F 66% 29.75 in 10.0 mi Variable 3.5 mph - N/A   Clear
9:53 AM 78.1 °F - 63.0 °F 60% 29.77 in 10.0 mi Variable 5.8 mph - N/A   Partly Cloudy
11:53 AM 82.9 °F 83.3 °F 61.0 °F 47% 29.79 in 10.0 mi Variable 3.5 mph - N/A   Clear
12:53 PM 82.9 °F 83.7 °F 62.1 °F 49% 29.79 in 10.0 mi Variable 5.8 mph - N/A   Mostly Cloudy
1:53 PM 81.0 °F 81.6 °F 60.1 °F 49% 29.80 in 10.0 mi Variable 4.6 mph - N/A   Mostly Cloudy
2:53 PM 82.0 °F 82.0 °F 57.9 °F 44% 29.81 in 10.0 mi Variable 3.5 mph - N/A   Mostly Cloudy
3:53 PM 81.0 °F 81.1 °F 57.9 °F 45% 29.81 in 10.0 mi Variable 5.8 mph - N/A   Mostly Cloudy
4:53 PM 82.0 °F 82.0 °F 57.9 °F 44% 29.81 in 10.0 mi Variable 6.9 mph - N/A   Scattered Clouds
5:53 PM 82.0 °F 81.3 °F 54.0 °F 38% 29.82 in 10.0 mi NNE 10.4 mph - N/A   Clear
6:53 PM 80.1 °F 80.0 °F 54.0 °F 40% 29.82 in 10.0 mi Variable 6.9 mph - N/A   Clear
7:53 PM 77.0 °F - 55.9 °F 48% 29.85 in 10.0 mi North 3.5 mph - N/A   Clear
8:53 PM 71.1 °F - 57.9 °F 63% 29.88 in 10.0 mi Calm Calm - N/A   Clear
9:53 PM 66.9 °F - 57.9 °F 73% 29.91 in 10.0 mi Calm Calm - N/A   Scattered Clouds
10:53 PM 69.1 °F - 54.0 °F 58% 29.92 in 10.0 mi Calm Calm - N/A   Clear
11:53 PM 66.0 °F - 54.0 °F 65% 29.94 in 10.0 mi Calm Calm - N/A   Clear